| time (UTC) | temp C | wind direction | speed KPH | gust KPH | rain 1hr cm | rain 24hr cm | rain mn cm | humidity % | barometer mb |
| 20260906225018 | 31 | 193 | 3.2 | 12.9 | 0.00 | 0.25 | 0.08 | 38 | 1017.4 |
| 20260906224058 | 31 | 200 | 0.0 | 4.8 | 0.00 | 0.25 | 0.08 | 38 | 1017.6 |
| 20260906223038 | 31 | 152 | 1.6 | 4.8 | 0.05 | 0.25 | 0.08 | 37 | 1017.6 |
| 20260906222038 | 30 | 208 | 1.6 | 4.8 | 0.08 | 0.25 | 0.08 | 38 | 1017.9 |
| 20260906221038 | 28 | 156 | 0.0 | 3.2 | 0.08 | 0.25 | 0.08 | 40 | 1018.1 |
| 20260906220018 | 28 | 306 | 1.6 | 6.4 | 0.05 | 0.25 | 0.08 | 43 | 1018.3 |
| 20260906215019 | 28 | 265 | 1.6 | 4.8 | 0.05 | 0.25 | 0.08 | 45 | 1018.3 |
| 20260906214019 | 30 | 255 | 1.6 | 4.8 | 0.05 | 0.25 | 0.08 | 44 | 1018.5 |
| 20260906213039 | 31 | 221 | 1.6 | 6.4 | 0.00 | 0.20 | 0.03 | 34 | 1018.6 |
| 20260906212019 | 32 | 106 | 1.6 | 6.4 | 0.00 | 0.18 | 0.00 | 31 | 1018.7 |
| 20260906211019 | 32 | 177 | 1.6 | 9.7 | 0.00 | 0.18 | 0.00 | 32 | 1018.7 |
| 20260906210019 | 31 | 16 | 1.6 | 12.9 | 0.00 | 0.18 | 0.00 | 35 | 1018.8 |
| 20260906205020 | 31 | 264 | 3.2 | 9.7 | 0.00 | 0.18 | 0.00 | 34 | 1018.9 |
| 20260906204039 | 30 | 303 | 3.2 | 8.0 | 0.00 | 0.18 | 0.00 | 36 | 1019.0 |
| 20260906203017 | 30 | 310 | 1.6 | 9.7 | 0.00 | 0.18 | 0.00 | 36 | 1019.2 |
| 20260906202017 | 31 | 25 | 1.6 | 6.4 | 0.00 | 0.18 | 0.00 | 35 | 1019.3 |
| 20260906201020 | 32 | 9 | 1.6 | 6.4 | 0.00 | 0.18 | 0.00 | 34 | 1019.4 |
| 20260906200020 | 31 | 347 | 0.0 | 4.8 | 0.00 | 0.18 | 0.00 | 35 | 1019.6 |
| 20260906195020 | 31 | 22 | 1.6 | 8.0 | 0.00 | 0.18 | 0.00 | 36 | 1019.7 |
| 20260906194018 | 31 | 45 | 1.6 | 6.4 | 0.00 | 0.18 | 0.00 | 36 | 1019.8 |
| 20260906193018 | 31 | 2 | 1.6 | 4.8 | 0.00 | 0.18 | 0.00 | 37 | 1020.0 |
| 20260906192017 | 31 | 37 | 1.6 | 4.8 | 0.00 | 0.18 | 0.00 | 37 | 1020.2 |
| 20260906191020 | 31 | 10 | 1.6 | 4.8 | 0.00 | 0.18 | 0.00 | 37 | 1020.4 |
| 20260906190041 | 30 | 314 | 1.6 | 4.8 | 0.00 | 0.18 | 0.00 | 38 | 1020.5 |
| 20260906185018 | 30 | 305 | 0.0 | 3.2 | 0.00 | 0.18 | 0.00 | 38 | 1020.7 |
| 20260906184038 | 30 | 1 | 1.6 | 8.0 | 0.00 | 0.18 | 0.00 | 37 | 1020.9 |
| 20260906183038 | 28 | 344 | 1.6 | 8.0 | 0.00 | 0.18 | 0.00 | 39 | 1021.1 |
| 20260906182018 | 28 | 52 | 1.6 | 8.0 | 0.00 | 0.18 | 0.00 | 39 | 1021.3 |
| 20260906181018 | 28 | 137 | 1.6 | 9.7 | 0.00 | 0.18 | 0.00 | 39 | 1021.5 |
| 20260906180038 | 28 | 16 | 1.6 | 6.4 | 0.00 | 0.18 | 0.00 | 39 | 1021.7 |
| 20260906175019 | 28 | 42 | 1.6 | 8.0 | 0.00 | 0.18 | 0.00 | 40 | 1021.8 |
| 20260906174018 | 28 | 42 | 1.6 | 6.4 | 0.00 | 0.18 | 0.00 | 40 | 1022.0 |
| 20260906173019 | 27 | 38 | 1.6 | 6.4 | 0.00 | 0.18 | 0.00 | 40 | 1022.2 |
| 20260906172039 | 27 | 1 | 1.6 | 6.4 | 0.00 | 0.18 | 0.00 | 41 | 1022.4 |
| 20260906171019 | 26 | 197 | 1.6 | 4.8 | 0.00 | 0.18 | 0.00 | 42 | 1022.5 |
| 20260906170019 | 26 | 56 | 1.6 | 4.8 | 0.00 | 0.18 | 0.00 | 43 | 1022.6 |
| 20260906165019 | 26 | 3 | 1.6 | 4.8 | 0.00 | 0.18 | 0.00 | 44 | 1022.8 |
| 20260906164039 | 25 | 291 | 0.0 | 3.2 | 0.00 | 0.18 | 0.00 | 44 | 1022.8 |
| 20260906163016 | 25 | 21 | 1.6 | 6.4 | 0.00 | 0.18 | 0.00 | 45 | 1022.8 |
| 20260906162039 | 24 | 321 | 1.6 | 3.2 | 0.00 | 0.18 | 0.00 | 46 | 1022.8 |
| 20260906161020 | 23 | 355 | 1.6 | 6.4 | 0.00 | 0.18 | 0.00 | 49 | 1022.9 |
| 20260906160017 | 23 | 13 | 1.6 | 6.4 | 0.00 | 0.18 | 0.00 | 48 | 1022.9 |
| 20260906155037 | 23 | 11 | 0.0 | 3.2 | 0.00 | 0.18 | 0.00 | 47 | 1022.8 |
| 20260906154037 | 23 | 356 | 1.6 | 3.2 | 0.00 | 0.18 | 0.00 | 50 | 1022.8 |
| 20260906153040 | 22 | 351 | 1.6 | 6.4 | 0.00 | 0.18 | 0.00 | 50 | 1022.7 |
| 20260906152020 | 22 | 4 | 1.6 | 4.8 | 0.00 | 0.18 | 0.00 | 50 | 1022.9 |
| 20260906151017 | 22 | 4 | 1.6 | 4.8 | 0.00 | 0.18 | 0.00 | 50 | 1022.9 |
| 20260906150017 | 22 | 302 | 1.6 | 3.2 | 0.00 | 0.18 | 0.00 | 49 | 1022.9 |
| 20260906145018 | 21 | 348 | 1.6 | 6.4 | 0.00 | 0.18 | 0.00 | 49 | 1022.8 |
| 20260906144017 | 21 | 360 | 1.6 | 4.8 | 0.00 | 0.18 | 0.00 | 50 | 1022.8 |
| 20260906143018 | 21 | 14 | 1.6 | 8.0 | 0.00 | 0.18 | 0.00 | 51 | 1022.9 |
| 20260906142018 | 21 | 10 | 1.6 | 4.8 | 0.00 | 0.18 | 0.00 | 50 | 1022.8 |
| 20260906141018 | 20 | 323 | 0.0 | 3.2 | 0.00 | 0.18 | 0.00 | 52 | 1022.9 |
| 20260906140038 | 19 | 304 | 0.0 | 1.6 | 0.00 | 0.18 | 0.00 | 55 | 1022.9 |
| 20260906135018 | 18 | 349 | 0.0 | 1.6 | 0.00 | 0.18 | 0.00 | 57 | 1023.0 |
| 20260906134018 | 17 | 359 | 0.0 | 1.6 | 0.00 | 0.18 | 0.00 | 59 | 1022.9 |
| 20260906133019 | 17 | 308 | 0.0 | 1.6 | 0.00 | 0.18 | 0.00 | 60 | 1022.8 |
| 20260906132019 | 17 | 47 | 0.0 | 3.2 | 0.00 | 0.18 | 0.00 | 59 | 1022.6 |
| 20260906131019 | 17 | 134 | 0.0 | 4.8 | 0.00 | 0.18 | 0.00 | 59 | 1022.5 |
| 20260906130019 | 16 | 224 | 0.0 | 3.2 | 0.00 | 0.18 | 0.00 | 60 | 1022.4 |
| 20260906125019 | 16 | 272 | 0.0 | 3.2 | 0.00 | 0.18 | 0.00 | 60 | 1022.3 |
| 20260906124016 | 16 | 350 | 0.0 | 4.8 | 0.00 | 0.18 | 0.00 | 60 | 1022.2 |
| 20260906123019 | 17 | 337 | 0.0 | 1.6 | 0.00 | 0.18 | 0.00 | 59 | 1022.2 |
| 20260906122019 | 17 | 358 | 1.6 | 4.8 | 0.00 | 0.18 | 0.00 | 59 | 1022.2 |
| 20260906121020 | 17 | 30 | 0.0 | 4.8 | 0.00 | 0.18 | 0.00 | 59 | 1022.4 |
| 20260906120037 | 17 | 6 | 1.6 | 4.8 | 0.00 | 0.18 | 0.00 | 60 | 1022.4 |
| 20260906115016 | 17 | 23 | 0.0 | 4.8 | 0.00 | 0.18 | 0.00 | 59 | 1022.4 |
| 20260906114016 | 17 | 7 | 1.6 | 6.4 | 0.00 | 0.18 | 0.00 | 58 | 1022.4 |
| 20260906113020 | 17 | 54 | 1.6 | 6.4 | 0.00 | 0.18 | 0.00 | 59 | 1022.4 |
| 20260906112020 | 17 | 57 | 1.6 | 4.8 | 0.00 | 0.18 | 0.00 | 59 | 1022.3 |
| 20260906111018 | 17 | 141 | 1.6 | 4.8 | 0.00 | 0.18 | 0.00 | 58 | 1022.2 |
| 20260906110017 | 17 | 88 | 1.6 | 4.8 | 0.00 | 0.18 | 0.00 | 58 | 1022.1 |
| 20260906105018 | 17 | 138 | 1.6 | 6.4 | 0.00 | 0.18 | 0.00 | 57 | 1021.9 |
| 20260906104017 | 18 | 49 | 0.0 | 4.8 | 0.00 | 0.18 | 0.00 | 57 | 1021.8 |
| 20260906103018 | 18 | 133 | 0.0 | 4.8 | 0.00 | 0.18 | 0.00 | 56 | 1021.8 |
| 20260906102037 | 18 | 140 | 1.6 | 4.8 | 0.00 | 0.18 | 0.00 | 56 | 1021.8 |
| 20260906101038 | 18 | 170 | 0.0 | 6.4 | 0.00 | 0.18 | 0.00 | 55 | 1021.8 |
| 20260906100018 | 18 | 167 | 1.6 | 4.8 | 0.00 | 0.18 | 0.00 | 55 | 1021.9 |
| 20260906094018 | 18 | 153 | 1.6 | 6.4 | 0.00 | 0.18 | 0.00 | 55 | 1021.7 |
| 20260906093018 | 18 | 174 | 1.6 | 4.8 | 0.00 | 0.18 | 0.00 | 55 | 1021.7 |
| 20260906092018 | 18 | 38 | 1.6 | 4.8 | 0.00 | 0.18 | 0.00 | 55 | 1021.7 |
| 20260906091018 | 19 | 360 | 1.6 | 8.0 | 0.00 | 0.18 | 0.00 | 54 | 1021.8 |
| 20260906090019 | 19 | 22 | 1.6 | 6.4 | 0.00 | 0.18 | 0.00 | 54 | 1021.7 |
| 20260906085019 | 19 | 136 | 1.6 | 6.4 | 0.00 | 0.18 | 0.00 | 54 | 1021.6 |
| 20260906084059 | 19 | 154 | 1.6 | 6.4 | 0.00 | 0.18 | 0.00 | 54 | 1021.5 |
| 20260906083019 | 20 | 359 | 0.0 | 6.4 | 0.00 | 0.18 | 0.00 | 54 | 1021.5 |
| 20260906082019 | 20 | 121 | 1.6 | 4.8 | 0.00 | 0.18 | 0.00 | 53 | 1021.6 |
| 20260906081019 | 20 | 143 | 1.6 | 8.0 | 0.00 | 0.18 | 0.00 | 53 | 1021.5 |
| 20260906080019 | 20 | 136 | 1.6 | 6.4 | 0.00 | 0.18 | 0.00 | 53 | 1021.5 |
| 20260906075037 | 20 | 109 | 1.6 | 6.4 | 0.00 | 0.18 | 0.00 | 54 | 1021.5 |
| 20260906074016 | 20 | 95 | 1.6 | 6.4 | 0.00 | 0.18 | 0.00 | 53 | 1021.5 |
| 20260906073020 | 20 | 153 | 1.6 | 6.4 | 0.00 | 0.18 | 0.00 | 53 | 1021.5 |
| 20260906072020 | 20 | 168 | 1.6 | 4.8 | 0.00 | 0.18 | 0.00 | 53 | 1021.5 |
| 20260906071017 | 19 | 128 | 1.6 | 4.8 | 0.00 | 0.18 | 0.00 | 54 | 1021.6 |
| 20260906070017 | 18 | 71 | 1.6 | 6.4 | 0.00 | 0.18 | 0.00 | 55 | 1021.5 |
| 20260906065017 | 18 | 341 | 0.0 | 3.2 | 0.00 | 0.18 | 0.00 | 58 | 1021.6 |
| 20260906064020 | 18 | 16 | 0.0 | 3.2 | 0.00 | 0.18 | 0.00 | 60 | 1021.7 |
| 20260906063020 | 18 | 282 | 0.0 | 1.6 | 0.00 | 0.18 | 0.00 | 61 | 1021.8 |
| 20260906062037 | 18 | 258 | 0.0 | 3.2 | 0.00 | 0.18 | 0.00 | 58 | 1021.9 |
| 20260906061017 | 18 | 268 | 0.0 | 1.6 | 0.00 | 0.18 | 0.00 | 60 | 1021.9 |
| 20260906060018 | 18 | 212 | 0.0 | 3.2 | 0.05 | 0.18 | 0.00 | 60 | 1022.0 |
| 20260906055018 | 18 | 223 | 0.0 | 1.6 | 0.15 | 0.18 | 0.18 | 64 | 1022.0 |
| 20260906054018 | 18 | 202 | 1.6 | 4.8 | 0.15 | 0.18 | 0.18 | 64 | 1021.9 |
| 20260906053018 | 18 | 226 | 0.0 | 3.2 | 0.15 | 0.18 | 0.18 | 67 | 1022.0 |
| 20260906052018 | 18 | 215 | 0.0 | 3.2 | 0.15 | 0.18 | 0.18 | 72 | 1022.0 |
| 20260906051019 | 20 | 211 | 0.0 | 3.2 | 0.15 | 0.18 | 0.18 | 74 | 1022.2 |
| 20260906050059 | 22 | 266 | 1.6 | 3.2 | 0.10 | 0.13 | 0.13 | 60 | 1022.3 |
| 20260906045019 | 23 | 253 | 0.0 | 1.6 | 0.00 | 0.03 | 0.03 | 41 | 1022.0 |
| 20260906044019 | 23 | 235 | 0.0 | 3.2 | 0.00 | 0.03 | 0.03 | 40 | 1022.2 |
| 20260906043039 | 23 | 246 | 0.0 | 1.6 | 0.00 | 0.03 | 0.03 | 38 | 1022.2 |
| 20260906042019 | 23 | 242 | 1.6 | 3.2 | 0.00 | 0.03 | 0.03 | 37 | 1022.1 |
| 20260906041019 | 23 | 234 | 1.6 | 4.8 | 0.00 | 0.03 | 0.03 | 37 | 1021.9 |
| 20260906040016 | 23 | 229 | 0.0 | 3.2 | 0.00 | 0.03 | 0.03 | 37 | 1021.8 |
| 20260906035019 | 22 | 247 | 1.6 | 3.2 | 0.00 | 0.03 | 0.03 | 37 | 1021.8 |
| 20260906034020 | 22 | 190 | 1.6 | 4.8 | 0.00 | 0.03 | 0.03 | 40 | 1021.6 |
| 20260906033020 | 22 | 187 | 0.0 | 1.6 | 0.00 | 0.03 | 0.03 | 40 | 1021.2 |
| 20260906032039 | 22 | 174 | 0.0 | 3.2 | 0.00 | 0.03 | 0.03 | 39 | 1021.0 |
| 20260906031017 | 23 | 212 | 0.0 | 1.6 | 0.00 | 0.03 | 0.03 | 38 | 1020.9 |
| 20260906030017 | 23 | 233 | 0.0 | 3.2 | 0.00 | 0.03 | 0.03 | 37 | 1020.7 |
| 20260906025020 | 23 | 207 | 0.0 | 3.2 | 0.00 | 0.03 | 0.03 | 37 | 1020.6 |
| 20260906024021 | 23 | 222 | 0.0 | 3.2 | 0.00 | 0.03 | 0.03 | 36 | 1020.6 |
| 20260906023017 | 23 | 238 | 1.6 | 4.8 | 0.00 | 0.03 | 0.03 | 36 | 1020.5 |
| 20260906022018 | 23 | 263 | 0.0 | 3.2 | 0.00 | 0.03 | 0.03 | 36 | 1020.5 |
| 20260906021018 | 23 | 293 | 0.0 | 1.6 | 0.00 | 0.03 | 0.03 | 36 | 1020.3 |
| 20260906020018 | 24 | 260 | 1.6 | 3.2 | 0.00 | 0.03 | 0.03 | 36 | 1020.1 |
| 20260906015018 | 25 | 210 | 0.0 | 3.2 | 0.00 | 0.03 | 0.03 | 34 | 1020.0 |
| 20260906014018 | 25 | 226 | 0.0 | 3.2 | 0.03 | 0.03 | 0.03 | 33 | 1019.9 |
| 20260906013018 | 25 | 226 | 0.0 | 3.2 | 0.03 | 0.03 | 0.03 | 32 | 1019.8 |
| 20260906012018 | 26 | 234 | 0.0 | 3.2 | 0.03 | 0.03 | 0.03 | 33 | 1019.8 |
| 20260906011018 | 26 | 237 | 0.0 | 1.6 | 0.03 | 0.03 | 0.03 | 33 | 1019.8 |
| 20260906010039 | 27 | 236 | 0.0 | 3.2 | 0.03 | 0.03 | 0.03 | 32 | 1019.8 |
| 20260906005039 | 27 | 249 | 1.6 | 3.2 | 0.03 | 0.03 | 0.03 | 31 | 1019.9 |
| 20260906004019 | 28 | 242 | 0.0 | 3.2 | 0.03 | 0.03 | 0.03 | 30 | 1019.9 |
| 20260906003039 | 28 | 217 | 0.0 | 4.8 | 0.00 | 0.00 | 0.00 | 29 | 1019.9 |
| 20260906002019 | 29 | 204 | 1.6 | 4.8 | 0.00 | 0.00 | 0.00 | 27 | 1019.8 |
| 20260906001019 | 30 | 184 | 1.6 | 6.4 | 0.00 | 0.00 | 0.00 | 27 | 1019.8 |
| 20260906000017 | 30 | 171 | 1.6 | 6.4 | 0.00 | 0.00 | 0.00 | 26 | 1019.7 |
| 20260905235039 | 30 | 205 | 3.2 | 11.3 | 0.00 | 0.00 | 0.00 | 25 | 1019.6 |
| 20260905234019 | 31 | 180 | 3.2 | 9.7 | 0.00 | 0.00 | 0.00 | 25 | 1019.6 |
| 20260905233020 | 31 | 225 | 1.6 | 3.2 | 0.00 | 0.00 | 0.00 | 25 | 1019.5 |
| 20260905232037 | 31 | 173 | 0.0 | 1.6 | 0.00 | 0.00 | 0.00 | 26 | 1019.7 |
| 20260905231016 | 32 | 180 | 1.6 | 6.4 | 0.00 | 0.00 | 0.00 | 25 | 1019.6 |
| 20260905230017 | 32 | 44 | 0.0 | 3.2 | 0.00 | 0.00 | 0.00 | 24 | 1019.6 |